Location: Newark
(49.1000°N, 0.4667°W)
Time: 10:17:44
(UTC+00:00)

BEESAT 3 - Pass Details

Date: 04 July 2020
Orbit: 482 x 522 km, 64.9° (Epoch: 10 August)

Event Time Altitude Azimuth Distance (km) Brightness Sun altitude
Rises 00:29:32 0° 280° (W) 2,652 ? -17.9°
Reaches altitude 10° 00:32:50 10° 310° (NW) 1,768 ? -17.8°
Maximum altitude 00:34:40 13° 337° (NNW) 1,595 ? -17.8°
Drops below altitude 10° 00:36:31 10° 5° (N) 1,769 ? -17.7°
Sets 00:39:50 0° 35° (NE) 2,657 ? -17.7°
